Regional Weather Roundup
Issued by NWS Midland/Odessa, TX

Home | Current Version | Previous Version | Text Only | Print | Product List | Glossary On
Versions: 1 2 3 4 5 6 7 8 9 10 11 12 13 14 15 16 17 18 19 20 21 22 23 24 25 26 27 28 29 30 31 32 33 34 35 36 37 38 39 40 41 42 43 44 45 46 47 48 49 50
000
ASUS44 KMAF 220310
RWRMAF
MIDLAND AREA WEATHER ROUNDUP
NATIONAL WEATHER SERVICE MIDLAND TX
1000 PM CDT SAT APR 21 2018

...IN SOUTHWEST TEXAS AND SOUTHEAST NEW MEXICO...

CITY           SKY/WX    TMP DP  RH WIND       PRES   REMARKS
ALPINE         CLEAR     62  20  20 CALM      30.19R
ANDREWS        FAIR      54  39  57 E7        30.14R
ARTESIA        CLEAR     63  36  36 E14G21    30.10R
BIG SPRING     CLEAR     57  42  59 N13       30.14R
CARLSBAD       CLEAR     63  35  35 E17       30.08R
DRYDEN           N/A     69  24  18 N9        29.99R
FORT STOCKTON  CLEAR     65  37  35 NE20G26   30.08R
GUAD PASS      CLEAR     60  25  26 W8        30.17R
HOBBS          CLEAR     55  37  50 E14       30.13R
LAMESA         FAIR      54  41  62 NE15      30.14S
MARFA          CLEAR     54  15  21 N12       30.15R
MIDLAND AIRPK    N/A     58  42  54 NE10G17   30.13R
MIDLAND INTL   CLEAR     58  42  55 NE18      30.12R
ODESSA         CLEAR     58  40  51 NE13      30.12R
PECOS          CLEAR     65  38  36 NE22G31   30.07R
PRESIDIO       FAIR      76  18  11 N8        30.02R
SEMINOLE       CLEAR     54  39  57 NE10      30.15R
SNYDER         CLEAR     57  43  58 N9        30.13R
WINK           CLEAR     61  38  42 NE18G28   30.08R
$$
...OTHER STATIONS IN TEXAS...

CITY           SKY/WX    TMP DP  RH WIND       PRES   REMARKS
ABILENE        CLEAR     55  47  74 N10       30.10R
AMARILLO       MOCLDY    44  41  89 N10       30.20R WCI  39
AUSTIN         FOG       67  67 100 CALM      29.89R VSB 1/4
BROWNSVILLE    CLOUDY    77  73  87 S13       29.92R
CORPUS CHRISTI CLOUDY    75  72  90 S15       29.90R
DALLAS FTW     CLOUDY    54  54 100 N15       29.99R
DEL RIO        CLEAR     76  28  17 N6        29.92R
EL PASO        MOCLDY    68  26  20 NE8       30.07R
HOUSTON INT    LGT RAIN  70  69  97 SE16G24   29.87F
LUBBOCK        CLEAR     47  40  76 NE12      30.15F
SAN ANGELO     CLEAR     65  45  48 N16       30.07R
SAN ANTONIO    PTCLDY    69  66  90 CALM      29.92R
WACO           CLOUDY    63  59  87 NW18G28   29.96R
WICHITA FALLS  LGT RAIN  46  46 100 N10       30.16R
$$
...OTHER LOCATIONS IN NEW MEXICO...

CITY           SKY/WX    TMP DP  RH WIND       PRES   REMARKS
ALAMOGORDO     PTCLDY    63  23  22 N3        30.11R
ALBUQUERQUE    PTCLDY    63  25  23 CALM      30.11R
CANNON AFB     CLEAR     46  45  99 E13       30.19R WCI  40
CLOVIS         CLEAR     44  38  79 NE14      30.18R WCI  37
HOLLOMAN AFB   PTCLDY    62  24  23 N5        30.12R
ROSWELL        CLEAR     59  37  44 E7        30.10R
RUIDOSO        CLEAR     46  19  34 SW5       30.24R
SANTA FE       PTCLDY    54  24  31 SW8       30.13R
TRUTH OR CONSE CLEAR     65  27  23 E3        30.11R
TUCUMCARI      CLEAR     48  41  76 E10       30.17R
$$




USA.gov is the U.S. government's official web portal to all federal, state and local government web resources and services.